W2DEN Weather Reports


Display with metric or nautical units.
time (UTC)temp
F
wind
direction
speed
MPH
gust
MPH
rain 1hr
in
rain 24hr
in
rain mn
in
humidity
%
barometer
mb
20210805193221 86 180 1.0 4.0 0.00 1.75 1.36 70 1011.6
20210805192221 86 217 0.0 2.0 0.00 1.75 1.36 70 1011.6
20210805191222 86 212 1.0 3.0 0.00 1.75 1.36 69 1011.5
20210805190217 86 217 1.0 4.0 0.00 1.75 1.36 73 1011.6
20210805185222 86 147 2.0 5.0 0.00 1.75 1.36 75 1011.5
20210805184222 86 160 2.0 7.0 0.00 1.75 1.36 74 1011.6
20210805183221 86 225 0.0 4.0 0.00 1.75 1.36 79 1011.6
20210805182222 86 159 3.0 7.0 0.00 1.75 1.36 76 1011.5
20210805181221 87 168 3.0 9.0 0.00 1.75 1.36 76 1011.5
20210805180216 87 177 2.0 4.0 0.00 1.75 1.36 76 1011.5
20210805175216 87 178 2.0 5.0 0.00 1.75 1.36 75 1011.6
20210805174221 86 181 0.0 2.0 0.00 1.75 1.36 77 1011.6
20210805173221 86 164 2.0 6.0 0.00 1.75 1.36 75 1011.8
20210805172222 86 131 1.0 5.0 0.00 1.75 1.36 72 1011.7
20210805171221 87 163 4.0 8.0 0.00 1.75 1.36 71 1011.8
20210805170222 87 131 1.0 3.0 0.00 1.75 1.36 72 1011.9
20210805165217 87 143 1.0 7.0 0.00 1.75 1.36 73 1012.0
20210805164217 87 227 2.0 6.0 0.00 1.75 1.36 72 1012.1
20210805163222 85 146 4.0 9.0 0.00 1.75 1.36 77 1012.2
20210805162221 83 125 4.0 8.0 0.00 1.75 1.36 82 1012.3
20210805161222 83 200 2.0 7.0 0.00 1.75 1.36 86 1012.4
20210805160221 83 206 2.0 3.0 0.00 1.75 1.36 87 1012.5
20210805155221 82 150 1.0 5.0 0.00 1.75 1.36 88 1012.6
20210805154217 81 130 1.0 5.0 0.00 1.75 1.36 89 1012.6
20210805153217 80 126 0.0 2.0 0.00 1.75 1.36 91 1012.7
20210805152222 79 133 0.0 3.0 0.00 1.75 1.36 90 1012.6
20210805151221 78 0.0 0.0 0.00 1.75 1.36 90 1012.8
20210805150222 78 138 0.0 4.0 0.00 1.75 1.36 90 1012.9
20210805145219 77 0.0 0.0 0.00 1.75 1.36 91 1012.9
20210805144221 77 135 0.0 1.0 0.00 1.75 1.36 91 1013.0
20210805143216 77 0.0 0.0 0.00 1.76 1.36 91 1012.9
20210805142221 77 137 0.0 4.0 0.00 1.76 1.36 92 1012.9
20210805141221 77 134 1.0 3.0 0.00 1.78 1.36 94 1012.8
20210805140221 77 136 2.0 4.0 0.00 1.79 1.36 96 1012.6
20210805135222 77 139 1.0 3.0 0.00 1.80 1.36 96 1012.4
20210805134222 77 159 0.0 3.0 0.00 1.82 1.36 97 1012.2
20210805133217 77 131 0.0 4.0 0.00 1.83 1.36 97 1011.9
20210805132217 76 130 1.0 4.0 0.00 1.85 1.36 98 1011.7
20210805131222 76 143 1.0 2.0 0.00 1.88 1.36 99 1011.6
20210805130221 76 188 0.0 1.0 0.00 1.90 1.36 98 1011.7
20210805125220 75 188 0.0 2.0 0.00 1.92 1.36 99 1011.6
20210805124221 75 0.0 0.0 0.00 1.95 1.36 99 1011.6
20210805123222 75 205 0.0 1.0 0.00 2.00 1.36 99 1011.5
20210805122216 75 206 0.0 1.0 0.01 2.02 1.36 99 1011.5
20210805121216 75 227 0.0 2.0 0.01 2.05 1.36 99 1011.5
20210805120221 75 0.0 0.0 0.01 2.06 1.36 98 1011.4
20210805115221 75 239 0.0 1.0 0.02 2.07 1.36 98 1011.4
20210805114221 76 0.0 0.0 0.02 2.16 1.36 98 1011.4
20210805113222 76 223 1.0 3.0 0.02 2.39 1.36 99 1011.3
20210805112221 76 0.0 0.0 0.01 2.54 1.35 99 1011.1
20210805111216 76 0.0 1.0 0.01 2.58 1.35 99 1011.1
20210805110221 76 0.0 0.0 0.01 2.60 1.35 99 1010.8
20210805105222 76 0.0 0.0 0.01 2.59 1.34 99 1010.7
20210805104222 76 0.0 0.0 0.02 2.60 1.34 99 1010.6
20210805103222 75 0.0 0.0 0.03 2.60 1.34 99 1010.6
20210805102222 75 0.0 0.0 0.04 2.60 1.34 99 1010.5
20210805101221 75 0.0 0.0 0.04 2.60 1.34 99 1010.6
20210805100216 75 0.0 0.0 0.06 2.60 1.34 99 1010.6
20210805095222 75 0.0 0.0 0.08 2.59 1.33 98 1010.7
20210805094216 75 0.0 0.0 0.10 2.58 1.32 98 1010.6
20210805093221 75 0.0 1.0 0.11 2.57 1.31 98 1010.5
20210805092217 75 221 1.0 3.0 0.11 2.56 1.30 98 1010.4
20210805091222 75 235 2.0 7.0 0.15 2.56 1.30 98 1010.5
20210805090216 75 226 5.0 9.0 0.28 2.54 1.28 99 1010.4
20210805085216 75 221 5.0 12.0 0.43 2.51 1.25 99 1010.6
20210805084220 74 217 4.0 8.0 0.42 2.48 1.22 99 1010.6
20210805083221 74 0.0 1.0 0.40 2.45 1.19 99 1010.3
20210805082221 73 237 0.0 1.0 0.40 2.44 1.18 98 1010.1
20210805081216 74 230 0.0 3.0 0.41 2.41 1.14 97 1010.1
20210805080221 75 223 2.0 6.0 0.42 2.26 1.00 98 1010.6
20210805075216 75 237 0.0 1.0 0.58 2.08 0.82 98 1010.2
20210805074216 75 237 0.0 2.0 0.57 2.06 0.80 99 1010.2
20210805073216 75 0.0 0.0 0.56 2.06 0.79 98 1010.2
20210805072221 74 237 0.0 1.0 0.57 2.05 0.78 98 1010.3
20210805071222 75 237 0.0 2.0 0.57 2.01 0.74 96 1010.2
20210805070219 76 237 2.0 3.0 0.49 1.85 0.57 99 1010.4
20210805065221 76 320 1.0 2.0 0.22 1.51 0.24 98 1010.2
20210805064216 76 321 0.0 1.0 0.22 1.50 0.23 98 1009.9
20210805063221 76 320 1.0 2.0 0.22 1.50 0.23 98 1010.1
20210805062221 76 320 0.0 2.0 0.20 1.48 0.21 98 1010.4
20210805061221 77 319 1.0 3.0 0.16 1.44 0.17 98 1010.7
20210805060221 77 297 0.0 3.0 0.08 1.36 0.09 98 1010.9
20210805055221 77 295 1.0 2.0 0.01 1.29 0.02 98 1011.0
20210805054221 76 0.0 0.0 0.00 1.28 0.01 98 1010.9
20210805053215 76 0.0 0.0 0.00 1.28 0.01 98 1010.8
20210805052221 76 0.0 0.0 0.00 1.28 0.01 98 1010.8
20210805051221 76 0.0 0.0 0.00 1.28 0.01 98 1010.8
20210805050221 76 0.0 0.0 0.01 1.28 0.01 98 1010.8
20210805045222 76 0.0 0.0 0.01 1.28 0.01 98 1010.6
20210805044221 76 0.0 0.0 0.01 1.28 0.01 98 1010.6
20210805043216 76 0.0 0.0 0.01 1.28 0.01 98 1010.7
20210805042216 76 295 0.0 1.0 0.01 1.28 0.01 98 1010.6
20210805041221 76 295 1.0 3.0 0.01 1.28 0.01 98 1010.6
20210805040222 76 295 1.0 2.0 0.00 1.27 0.00 98 1010.8
20210805035222 76 295 1.0 3.0 0.00 1.27 1.27 98 1011.0
20210805034228 76 295 0.0 1.0 0.00 1.27 1.27 98 1010.9
20210805033221 76 295 1.0 2.0 0.00 1.27 1.27 98 1011.1
20210805032222 76 0.0 0.0 0.05 1.27 1.27 98 1011.0
20210805031222 76 0.0 0.0 0.05 1.27 1.27 98 1011.0
20210805030217 76 0.0 0.0 0.05 1.27 1.27 97 1010.9
20210805025222 76 0.0 0.0 0.06 1.27 1.27 97 1010.9
20210805024221 76 0.0 0.0 0.08 1.27 1.27 96 1010.8
20210805023221 77 295 0.0 2.0 0.17 1.27 1.27 96 1010.7
20210805022216 77 314 1.0 4.0 0.32 1.22 1.22 95 1010.7
20210805021222 77 315 1.0 3.0 0.34 1.22 1.22 95 1010.5
20210805020221 78 289 2.0 5.0 0.34 1.22 1.22 95 1010.5
20210805015216 78 315 0.0 2.0 0.32 1.20 1.20 95 1010.3
20210805014222 78 0.0 0.0 0.31 1.19 1.19 94 1010.1
20210805013222 79 324 4.0 8.0 0.22 1.10 1.10 92 1010.2
20210805012222 81 282 2.0 7.0 0.02 0.90 0.90 87 1010.1
20210805011222 82 289 2.0 5.0 0.00 0.88 0.88 82 1010.0
20210805010221 82 223 1.0 6.0 0.00 0.88 0.88 81 1010.0
20210805005222 82 252 2.0 5.0 0.00 0.88 0.88 82 1009.9
20210805004216 82 250 2.0 6.0 0.00 0.88 0.88 82 1009.8
20210805003222 82 252 2.0 4.0 0.00 0.88 0.88 82 1009.7
20210805002221 82 263 4.0 6.0 0.00 0.88 0.88 81 1009.4
20210805001222 82 226 3.0 5.0 0.00 0.88 0.88 81 1009.4
20210805000222 82 223 1.0 6.0 0.00 0.88 0.88 83 1009.4
20210804235222 82 215 2.0 4.0 0.00 0.88 0.88 84 1009.4
20210804234216 82 243 2.0 4.0 0.00 0.88 0.88 83 1009.4
20210804233217 82 247 2.0 6.0 0.00 0.88 0.88 83 1009.4
20210804232222 82 237 5.0 9.0 0.00 0.88 0.88 82 1009.5
20210804231222 83 251 2.0 5.0 0.00 0.88 0.88 81 1009.4
20210804230222 83 250 3.0 6.0 0.00 0.88 0.88 84 1009.5
20210804225216 83 248 3.0 8.0 0.00 0.88 0.88 85 1009.6
20210804224221 83 237 1.0 5.0 0.00 0.88 0.88 85 1009.5
20210804223217 83 251 2.0 8.0 0.00 0.88 0.88 84 1009.5
20210804222222 83 217 4.0 8.0 0.00 0.88 0.88 84 1009.3
20210804221222 83 227 3.0 5.0 0.00 0.88 0.88 85 1009.4
20210804220221 83 223 2.0 5.0 0.00 0.88 0.88 86 1009.3
20210804215222 83 248 3.0 5.0 0.00 0.88 0.88 85 1009.4
20210804214221 83 233 1.0 5.0 0.00 0.88 0.88 84 1009.4
20210804213222 83 253 1.0 4.0 0.00 0.88 0.88 85 1009.4
20210804212215 83 252 0.0 1.0 0.00 0.88 0.88 86 1009.4
20210804211222 82 250 1.0 4.0 0.00 0.88 0.88 87 1009.5
20210804210221 82 280 1.0 3.0 0.00 0.88 0.88 85 1009.6
20210804205221 82 277 2.0 5.0 0.00 0.88 0.88 86 1009.8
20210804204221 82 294 3.0 5.0 0.00 0.88 0.88 85 1009.8
20210804203221 82 256 3.0 6.0 0.00 0.89 0.88 85 1010.0
20210804202217 83 277 5.0 9.0 0.00 0.89 0.88 82 1010.1
20210804201216 84 264 5.0 11.0 0.00 0.89 0.88 79 1010.1
20210804200222 84 263 6.0 15.0 0.00 0.89 0.88 80 1010.0
20210804195222 85 232 4.0 12.0 0.00 0.89 0.88 79 1010.1
20210804194221 84 229 7.0 14.0 0.00 0.90 0.88 77 1009.9